This demonstration page uses our WeatherBlox Daily Observations layout. Learn more.

Left ArrowRight Arrow

Hourly Observations for May 23, 2022

Temp ( °F °C ) Dew Point ( °F °C ) Humidity (%) Winds ( mph kmh ) Pressure ( in mb ) Visibility ( mi km ) Precip ( " mm )
12:52 am 00:52 Mostly Clear 48 8.9 44 6.7 86 86 NE 5 7 30.27 1025 10 16 0.00 0.00
1:52 am 01:52 Mostly Clear 48 8.9 44 6.7 86 86 Calm 30.25 1025 10 16 0.00 0.00
2:52 am 02:52 Cloudy 48 8.9 45 7.2 89 89 Calm 30.24 1024 10 16 0.00 0.00
3:52 am 03:52 Cloudy 50 10 45 7.2 83 83 NE 5 7 30.23 1024 10 16 0.00 0.00
4:52 am 04:52 Cloudy 50 10 45 7.2 83 83 NE 5 7 30.22 1023 10 16 0.00 0.00
5:52 am 05:52 Cloudy 51 10.6 45 7.2 80 80 ENE 6 9 30.22 1023 10 16 0.00 0.00
6:52 am 06:52 Cloudy 51 10.6 45 7.2 80 80 ENE 7 11 30.22 1023 10 16 0.00 0.00
7:52 am 07:52 Cloudy 54 12.2 45 7.2 72 72 ENE 8 13 30.22 1023 10 16 0.00 0.00
9:52 am 09:52 Cloudy 57 13.9 45 7.2 64 64 E 14 22 30.21 1023 10 16 0.00 0.00
10:52 am 10:52 Cloudy 59 15 45 7.2 60 60 E 10 17 30.20 1023 10 16 0.00 0.00
11:52 am 11:52 Cloudy 60 15.6 47 8.3 62 62 E 10 17 30.19 1022 10 16 0.00 0.00
12:52 pm 12:52 Cloudy 61 16.1 48 8.9 63 63 ESE 5 7 30.18 1022 10 16 0.00 0.00
1:52 pm 13:52 Cloudy 61 16.1 48 8.9 63 63 ESE 5 7 30.17 1022 10 16 0.00 0.00
2:52 pm 14:52 Cloudy 62 16.7 50 10 65 65 E 14 22 30.12 1020 10 16 0.00 0.00
3:52 pm 15:52 Cloudy with Light Rain 61 16.1 51 10.6 70 70 E 8 13 30.12 1020 10 16 0.00 0.00
4:09 pm 16:09 Mostly Cloudy 62 16.7 51 10.6 67 67 ESE 13 20 30.10 1019 10 16 0.00 0.00
4:52 pm 16:52 Cloudy 61 16.1 51 10.6 70 70 ESE 12 19 30.09 1019 10 16 0.00 0.00
5:52 pm 17:52 Mostly Cloudy 60 15.6 51 10.6 72 72 E 8 13 30.07 1018 10 16 0.00 0.00
6:52 pm 18:52 Cloudy 60 15.6 51 10.6 72 72 E 8 13 30.06 1018 10 16 0.00 0.00
7:52 pm 19:52 Cloudy 59 15 51 10.6 75 75 ESE 6 9 30.08 1019 10 16 0.00 0.00
8:52 pm 20:52 Cloudy 59 15 51 10.6 75 75 SE 8 13 30.07 1018 10 16 0.00 0.00
9:52 pm 21:52 Cloudy 59 15 51 10.6 75 75 E 6 9 30.08 1019 10 16 0.00 0.00
10:52 pm 22:52 Cloudy 59 15 51 10.6 75 75 ESE 9 15 30.08 1019 10 16 0.00 0.00
11:52 pm 23:52 Cloudy 59 15 51 10.6 75 75 ESE 10 17 30.07 1018 10 16 0.00 0.00

Powered by AerisWeather